User: anonymous   Login
Location: Splawn
(30.9202°N, 96.9858°W)
Time: 16:45:59
(UTC+00:00)
Language:

SR - Orbit

View from above orbital plane
View from above orbital plane
View from above satellite
View from above satellite

Ground track
Ground track

The orbit data is extracted from the following two-line orbital elements,

1    46U 60007B   20051.80304515 -.00000062  00000-0  11133-4 0  9999
2    46  66.6919   4.3992 0214896 220.4908 138.0043 14.49274436122054
Epoch (UTC): 20 February 2020 19:16:23
Eccentricity: 0.0214896
inclination: 66.6919°
perigee height: 575 km
apogee height: 881 km
right ascension of ascending node: 4.3992°
argument of perigee: 220.4908°
revolutions per day: 14.49274436
mean anomaly at epoch: 138.0043°
orbit number at epoch: 12205

The dashed part of the orbit path shows where the satellite is in the earth's shadow,  

DLR